YAOGAN-27

Last updated on Wed May 21 2025 00:02:27 GMT+0000 (Coordinated Universal Time)

1 40878U 15040A 25140.53004477 -.00000022 00000+0 52950-4 0 9998 2 40878 100.0866 139.5753 0008829 44.8665 315.3161 13.16048591466018
UTC large
Height (km)
Speed (km/s)
/
Latitude / Longitude
Inclination (degrees)
Orbital Period (minutes)
Azimuth
Elevation
Range (km)
Doppler Factor

Next 0 passes for location: London (51.5072 / 0.1276)

Sorry there are no passes over London.